Showing default

WORLDVIEW 2, 35946

Orbit data source: Space-Track

WORLDVIEW 2, 35946 is a payload satellite owned by DigitalGlobe (US) in SSO that was launched on Thu, 08 Oct 2009 UTC via a DELTA 7920-10C launch vehicle from the Air Force Western Test Range (AFWTR). Payloads include a variety of satellites, spacecraft, and rockets equipped with specific instruments for various scientific and technological missions. These include communications satellites like Starlink; space stations such as the ISS; scientific satellites like the Hubble; Earth observation satellites from companies like Planet Labs, Umbra, and HawkEye 360; GPS; miniature CubeSats for education and research; and military/defense satellites.

Loading next visibility...
WORLDVIEW 2 details
Identifier
35946, 2009-055A
Orbit
SSO
Last TLE update19 hours ago
Origin
Flag of USDigitalGlobe (US)
ManufacturerBall
MissionOperational Commercial Imaging
Bus & MotorBCP-5000, Unknown motor
Mass2,615 kg wet, ~2,200 kg dry
Launch date (UTC)
2009-10-08 (15 years ago)
Launch vehicle
DELTA 7920-10C
Launch site
Air Force Western Test Range (AFWTR)
Object type
Payload
Rocket body
Debris
Shape & HBRHex Cyl + 2 Pan, 7.1 m
Radar Cross Section13.188 m², Large (>1 m²)

Expand to show TLE details & history

TLE from 19 hours ago
0 WORLDVIEW 2
1 35946U 09055A   24360.69035891  .00000519  00000-0  18967-3 0  9991
2 35946  98.4913  70.7025 0004632  37.7330 322.4181 14.37052814798394
Epoch: 2024-12-25T16:34Z
Definitive object data (Epoch: 2024-12-25T16:34:07.009Z)
Latitude-0.00001°
Longitude87.49281°
Altitude768.574 km
Speed7.471 km/s
True Right ascension04h 42m 48s
True Declination0° 00' 00"
Sunlit
Object was in full shadow at TLE epoch
Visualization TLE readout
Latitude77.10146°
Longitude47.83777°
Altitude778.943 km
Speed7.472 km/s
Apparent Right ascension23h 28m 08s
Apparent Declination25° 31' 36"
Sunlit
Object is in full shadow
Visualization observer readout
Local Sidereal Time10:40:36
Azimuth348.3° N
Elevation-23.627°
Doppler factor1
Orbital elements
Apogee altitude768.687 km
Perigee altitude762.069 km
Semi-major axis7,143.515 km
Eccentricity0.0004632
Inclination98.4913°
RAAN70.7025°
Arg. of periapsis37.733°
True anomaly322.38571°
Mean anomaly322.4181°
Eccentric anomaly322.40191°
Mean motion3.5948 °/min
BSTAR0.00018967
Orbital period100.14 mins
Loading maneuver chart data...

WORLDVIEW 2 Visibility forecast

Observer location: undefined°, undefined

Span
Click to sort rows by Start time (UTC) header in descending order
Start Az.
Max El. time (UTC)
Max El. Az.
Max El.
End time (UTC)
End Az.
6 mins2024-12-26 16:34:17.137Z55.431° ENE2024-12-26 16:37:17.137Z93.619° ESE16.139°2024-12-26 16:40:17.137Z130.799° SE
8 mins2024-12-26 18:13:17.137Z357.234° N2024-12-26 18:16:17.137Z299.16° NW38.774°2024-12-26 18:21:17.137Z212.189° SW
6 mins2024-12-27 03:49:17.137Z105.542° ESE2024-12-27 03:52:17.137Z60.054° ENE21.173°2024-12-27 03:55:17.137Z19.534° NNE
8 mins2024-12-27 05:27:17.137Z198.248° SSW2024-12-27 05:30:17.137Z246.95° WSW32.79°2024-12-27 05:35:17.137Z330.805° NNW
|